This is the latest recevied weather packets stored in our database for station/object YO6SAY-10. If no packets are shown the sender has not sent any weather packets the latest 10 day(s).
| Time | Temp. | Humidity | Pressure | Rain* | Wind** | Luminosity | Snow |
|---|---|---|---|---|---|---|---|
| 1777816834 | 31.67° C | 26% | 952.5 hPa | - | - | - | - |
| 1777815934 | 32.22° C | 26% | 952.7 hPa | - | - | - | - |
| 1777815034 | 32.22° C | 26% | 953 hPa | - | - | - | - |
| 1777814134 | 32.78° C | 26% | 953.2 hPa | - | - | - | - |
| 1777813233 | 32.78° C | 27% | 953.4 hPa | - | - | - | - |
| 1777812333 | 32.22° C | 27% | 953.6 hPa | - | - | - | - |
| 1777811433 | 31.67° C | 28% | 953.7 hPa | - | - | - | - |
| 1777810532 | 30° C | 28% | 953.8 hPa | - | - | - | - |
| 1777809632 | 27.22° C | 30% | 954 hPa | - | - | - | - |
| 1777808732 | 23.89° C | 32% | 954 hPa | - | - | - | - |
| 1777807832 | 18.89° C | 36% | 954.2 hPa | - | - | - | - |
| 1777806931 | 12.78° C | 40% | 954.3 hPa | - | - | - | - |
| 1777806031 | 11.67° C | 40% | 954.5 hPa | - | - | - | - |
| 1777805131 | 11.11° C | 41% | 954.7 hPa | - | - | - | - |
| 1777804231 | 11.67° C | 41% | 954.8 hPa | - | - | - | - |
| 1777803331 | 11.11° C | 41% | 955 hPa | - | - | - | - |
| 1777802431 | 11.11° C | 42% | 955.1 hPa | - | - | - | - |
| 1777801531 | 11.11° C | 42% | 955.3 hPa | - | - | - | - |
| 1777800630 | 10.56° C | 44% | 955.3 hPa | - | - | - | - |
| 1777799730 | 10° C | 45% | 955.4 hPa | - | - | - | - |
| 1777798830 | 9.44° C | 46% | 955.4 hPa | - | - | - | - |
| 1777797930 | 9.44° C | 47% | 955.6 hPa | - | - | - | - |
| 1777797027 | 9.44° C | 48% | 955.6 hPa | - | - | - | - |
| 1777796127 | 8.89° C | 49% | 955.5 hPa | - | - | - | - |
| 1777795227 | 8.89° C | 51% | 955.7 hPa | - | - | - | - |
* Rain since midnight (hover to see other rain measurements)
** Current wind speed in m/s (hover to see current wind gust speed)